Regional Weather Roundup
Issued by NWS Kansas City/Pleasant Hill, MO

Home | Current Version | Previous Version | Text Only | Print | Product List | Glossary On
Versions: 1 2 3 4 5 6 7 8 9 10 11 12 13 14 15 16 17 18 19 20 21 22 23 24 25 26 27
000
ASUS43 KEAX 270010
RWREAX

WEATHER ROUNDUP FOR EASTERN KANSAS AND NORTHWEST MISSOURI
NATIONAL WEATHER SERVICE KANSAS CITY/PLEASANT HILL MO
700 PM CDT SUN MAR 26 2017

KSZ040-057-103>105-MOZ028-029-037-043-270100-
...KANSAS CITY METROPOLITAN AREA...

CITY           SKY/WX    TMP DP  RH WIND       PRES   REMARKS
K.C. INTL      CLOUDY    51  44  77 E5        29.91R
6HR MIN TEMP:  49; 6HR MAX TEMP:  52;

K.C. DOWNTOWN  CLOUDY    53  44  71 NE6       29.89S
6HR MIN TEMP:  50; 6HR MAX TEMP:  54;

LEES SUMMIT    CLOUDY    54  45  71 E6        29.89R
6HR MIN TEMP:  51; 6HR MAX TEMP:  54;

OLATHE - IXD   CLOUDY    52  45  77 S6        29.93R
6HR MIN TEMP:  49; 6HR MAX TEMP:  53;

OLATHE - OJC   CLOUDY    52  45  77 CALM      29.91R
6HR MIN TEMP:  48; 6HR MAX TEMP:  52;

LAWRENCE       CLOUDY    53  45  74 CALM      29.93R

$$

MOZ001>008-011>017-020>025-030>033-038>040-044>046-053-054-270100-
...NORTHERN AND CENTRAL MISSOURI...

CITY           SKY/WX    TMP DP  RH WIND       PRES   REMARKS
ST. JOSEPH     CLOUDY    49  43  80 N3        29.92R
6HR MIN TEMP:  48; 6HR MAX TEMP:  50;

MOSBY          CLOUDY    52  43  71 CALM      29.90F
WARRENSBURG    CLOUDY    54  45  71 CALM      29.90S
WHITEMAN AFB   MOCLDY    55  53  95 NE3       29.89R
6HR MIN TEMP:  54; 6HR MAX TEMP:  56;

CLINTON        PTCLDY    55  48  76 NE6       29.89F
SEDALIA        CLOUDY    57  48  72 CALM      29.91S
6HR MIN TEMP:  54; 6HR MAX TEMP:  57;

WARSAW         NOT AVBL
CHILLICOTHE      N/A     51  44  77 CALM      29.94R
6HR MIN TEMP:  48; 6HR MAX TEMP:  52;

KIRKSVILLE     CLOUDY    49  44  83 W5        29.92R
6HR MIN TEMP:  47; 6HR MAX TEMP:  50;


$$

MOZ041-047>049-056>058-063>065-088>090-097-270100-
...EASTERN AND SOUTHERN MISSOURI...

CITY           SKY/WX    TMP DP  RH WIND       PRES   REMARKS
ST. LOUIS INTL MOCLDY    62  49  62 W3        29.92S
6HR MIN TEMP:  59; 6HR MAX TEMP:  64;

SPIRIT OF STL  MOCLDY    59  51  75 SW5       29.91R
COLUMBIA       CLOUDY    57  49  74 W5        29.92R
JEFFERSON CITY CLOUDY    61  48  62 NW5       29.92R
ROLLA          PTCLDY    61  50  67 CALM      29.90R
OSAGE BEACH    PTCLDY   N/A N/A N/A N3        29.91R
SPRINGFIELD    CLOUDY    64  50  60 E6        29.86R
BRANSON        MOCLDY    64  50  59 SE6       29.88S
JOPLIN         MOCLDY    65  50  58 E9        29.80F
WEST PLAINS    CLOUDY    64  48  56 CALM      29.92S

$$

IAZ060-094-KSZ022-034>040-054-083-096-NEZ052-066-093-270100-
...KANSAS...SOUTHEAST NEBRASKA AND IOWA...

CITY           SKY/WX    TMP DP  RH WIND       PRES   REMARKS
TOPEKA         CLOUDY    51  46  83 CALM      29.93R
6HR MIN TEMP:  50; 6HR MAX TEMP:  53; 6HR PCP: TRACE;

MANHATTAN      LGT RAIN  49  47  93 NE7       29.93S FOG
EMPORIA        RAIN      50  50 100 NE8       29.88R FOG
CHANUTE        LGT RAIN  59  51  75 NE10      29.81F
WICHITA        CLOUDY    54  49  83 NE15      29.78F
OMAHA          CLOUDY    49  41  74 N7        29.90S
LINCOLN        CLOUDY    48  42  80 NE6       29.93R
FALLS CITY     CLOUDY    48  43  82 CALM      29.92R
LAMONI         CLOUDY    48  43  82 N3        29.90R
DES MOINES     CLOUDY    48  43  82 N7        29.89F

$$





USA.gov is the U.S. government's official web portal to all federal, state and local government web resources and services.